Regional Weather Roundup
Issued by NWS

Home | Current Version | Previous Version | Text Only | Print | Product List | Glossary Off
Versions: 1 2 3 4 5 6 7 8 9 10 11 12 13 14 15 16 17 18 19 20 21 22 23 24 25 26 27 28 29 30 31 32 33 34 35 36 37 38 39 40 41 42 43 44 45 46 47 48 49 50

000
ASUS43 KMKX 211221
RWRWI

WISCONSIN REGIONAL WEATHER ROUNDUP
NATIONAL WEATHER SERVICE MILWAUKEE/SULLIVAN WI
700 AM CDT THU SEP 21 2017

NOTE: "FAIR" INDICATES FEW OR NO CLOUDS BELOW 12,000 FEET WITH NO
SIGNIFICANT WEATHER AND/OR OBSTRUCTIONS TO VISIBILITY.

WIZ001-002-006>008-014>016-023>028-211300-
NORTHWEST WISCONSIN

CITY           SKY/WX    TMP DP  RH WIND       PRES   REMARKS
SUPERIOR ARPT    N/A     37  37 100 CALM      30.02R FOG
6HR MIN TEMP:  37; 6HR MAX TEMP:  46;

ASHLAND        FOG       40  38  93 CALM      30.04S VSB 3/4
6HR MIN TEMP:  37; 6HR MAX TEMP:  47;

HAYWARD        CLEAR     40  39  97 N5        30.04R
6HR MIN TEMP:  39; 6HR MAX TEMP:  46;

SIREN          CLEAR     40  39  99 CALM      30.02S
6HR MIN TEMP:  39; 6HR MAX TEMP:  47;

CUMBERLAND     CLEAR     45  45 100 E5        30.03R
RICE LAKE      CLEAR     44  44  99 CALM      30.04R
6HR MIN TEMP:  43; 6HR MAX TEMP:  50;

CHETEK         CLEAR     46  46 100 CALM      30.03S FOG
6HR MIN TEMP:  45; 6HR MAX TEMP:  53;

LADYSMITH      CLEAR     48  47  97 N3        30.05S
6HR MIN TEMP:  47; 6HR MAX TEMP:  55;

EAU CLAIRE     CLEAR     48  47  96 CALM      30.00F
6HR MIN TEMP:  47; 6HR MAX TEMP:  56;

MENOMONIE      CLEAR     49  49  99 CALM      30.02S
6HR MIN TEMP:  49; 6HR MAX TEMP:  55;

NEW RICHMOND   CLEAR     46  46 100 E5        30.01R
OSCEOLA        CLEAR     43  43 100 E5        30.04R
6HR MIN TEMP:  42; 6HR MAX TEMP:  49;

$$

WIZ003>005-009-010-017-018-211300-
NORTH CENTRAL WISCONSIN

CITY           SKY/WX    TMP DP  RH WIND       PRES   REMARKS
MANITOWISH WTR FOG       42  42 100 CALM      30.06R VSB 1/2
6HR MIN TEMP:  40; 6HR MAX TEMP:  53;

ARBOR VITAE    FOG       47  46  95 CALM      30.06R VSB<1/4
6HR MIN TEMP:  47; 6HR MAX TEMP:  57;

WOODRUFF       FOG       47  46  95 CALM      30.06R VSB<1/4
6HR MIN TEMP:  47; 6HR MAX TEMP:  57;

RHINELANDER    CLEAR     51  51 100 CALM      30.07R FOG
6HR MIN TEMP:  50; 6HR MAX TEMP:  62;

EAGLE RIVER    FOG       46  46 100 CALM      30.06S VSB 1/2
6HR MIN TEMP:  45; 6HR MAX TEMP:  59;

LAND O LAKES   CLEAR     44  44 100 CALM      30.09R FOG
6HR MIN TEMP:  44; 6HR MAX TEMP:  57;

PHILLIPS       PTCLDY    44  44 100 CALM      30.04R FOG
6HR MIN TEMP:  42; 6HR MAX TEMP:  52;

TOMAHAWK       FOG       47  46  97 CALM      30.05S VSB 1/4
6HR MIN TEMP:  44; 6HR MAX TEMP:  56;

MEDFORD        CLEAR     51  51  97 NE7       30.03R
6HR MIN TEMP:  49; 6HR MAX TEMP:  54;

MERRILL        CLEAR     52  52 100 CALM      30.05R FOG
$$

WIZ029-030-035-036-043>047-211300-
CENTRAL WISCONSIN

CITY           SKY/WX    TMP DP  RH WIND       PRES   REMARKS
WAUSAU         CLEAR     58  57  97 CALM      30.03R
6HR MIN TEMP:  56; 6HR MAX TEMP:  63;

MOSINEE        MOCLDY    57  57 100 NE3       30.04R FOG
MARSHFIELD     CLEAR     58  55  90 NE7       30.02R
6HR MIN TEMP:  58; 6HR MAX TEMP:  62;

STEVENS POINT  CLOUDY    63  63 100 NE7       30.02R FOG
6HR MIN TEMP:  60; 6HR MAX TEMP:  64; 6HR PCP:  0.01;

WAUPACA        CLOUDY    68  68  98 NE5       30.02R FOG
6HR MIN TEMP:  66; 6HR MAX TEMP:  68; 6HR PCP:  0.01;

WAUTOMA        FOG       67  67 100 NE5       30.01R VSB 1/2
6HR MIN TEMP:  67; 6HR MAX TEMP:  69;

WISC RAPIDS    FOG       63  62  97 E5        30.03R VSB 3/4
6HR MIN TEMP:  60; 6HR MAX TEMP:  65;

CAMP DOUGLAS   PTCLDY    57  57 100 W5        30.00R
$$

WIZ011>013-019>022-031-037>040-048>050-211300-
NORTHEAST WISCONSIN

CITY           SKY/WX    TMP DP  RH WIND       PRES   REMARKS
ANTIGO         CLOUDY    57  57 100 E7        30.05R
6HR MIN TEMP:  56; 6HR MAX TEMP:  65;

SHAWANO        CLOUDY    67  64  93 NE8       30.02R
6HR MIN TEMP:  65; 6HR MAX TEMP:  69;

OCONTO         MOCLDY    66  63  90 NE6       30.01R
6HR MIN TEMP:  65; 6HR MAX TEMP:  68;

STURGEON BAY   MOCLDY    65  64  97 N7        30.01R FOG
6HR MIN TEMP:  65; 6HR MAX TEMP:  70;

GREEN BAY      CLOUDY    68  68 100 NE8       30.02R
6HR MIN TEMP:  64; 6HR MAX TEMP:  68;

MANITOWOC      CLOUDY    66  66 100 CALM      30.01S
6HR MIN TEMP:  67; 6HR MAX TEMP:  72;

APPLETON       FOG       66  66 100 NE7       30.00R VSB 1/2
CLINTONVILLE   NOT AVBL
OSHKOSH        CLOUDY    68  67  96 NE3       30.00R
6HR MIN TEMP:  66; 6HR MAX TEMP:  69;

$$

WIZ032>034-041-042-053>061-211300-
SOUTHWEST WISCONSIN

CITY           SKY/WX    TMP DP  RH WIND       PRES   REMARKS
LA CROSSE      PTCLDY    57  57 100 NE3       30.00R
SPARTA         FOG       52  52 100 CALM      30.02R VSB 1/2
6HR MIN TEMP:  52; 6HR MAX TEMP:  59; 6HR PCP:  0.01;

VIROQUA        CLOUDY    62  62 100 NE3       30.00S
6HR MIN TEMP:  60; 6HR MAX TEMP:  65;

BOSCOBEL       MOCLDY    67  66  97 NE3       29.97R FOG
6HR MIN TEMP:  67; 6HR MAX TEMP:  72;

PRAIRIE DU CHI CLOUDY    65  63  95 NW5       29.96S FOG
6HR MIN TEMP:  65; 6HR MAX TEMP:  69;

PLATTEVILLE    CLOUDY    65  65 100 CALM      29.98S
6HR MIN TEMP:  65; 6HR MAX TEMP:  71;

$$

WIZ056-057-062-063-064-067-068-211300-
SOUTH CENTRAL WISCONSIN

CITY           SKY/WX    TMP DP  RH WIND       PRES   REMARKS
REEDSBURG      CLOUDY    65  65 100 N3        29.99S
6HR MIN TEMP:  65; 6HR MAX TEMP:  70;

BARABOO/DELLS  CLOUDY    66  65  96 NW3       29.99S FOG
6HR MIN TEMP:  66; 6HR MAX TEMP:  69; 6HR PCP:  0.01;

LONE ROCK      CLOUDY    68  68 100 NE3       29.98R FOG
6HR MIN TEMP:  68; 6HR MAX TEMP:  72;

MINERAL POINT  CLOUDY    68  68 100 CALM      29.98F FOG
MADISON        CLOUDY    68  68 100 CALM      29.98R FOG
6HR MIN TEMP:  68; 6HR MAX TEMP:  73; 6HR PCP: TRACE;

MIDDLETON      CLOUDY    69  69 100 CALM      29.99R
6HR MIN TEMP:  68; 6HR MAX TEMP:  72; 6HR PCP:  0.02;

WATERTOWN      MOCLDY    66  66 100 CALM      29.99R
6HR MIN TEMP:  65; 6HR MAX TEMP:  69;

MONROE         CLOUDY    64  63  94 N5        29.97F
JANESVILLE     MOCLDY    70  70 100 CALM      29.97S
$$

WIZ051-052-058>065-066-070>072-211300-
SOUTHEAST WISCONSIN

CITY           SKY/WX    TMP DP  RH WIND       PRES   REMARKS
MILWAUKEE      CLOUDY    73  67  81 W3        29.97S
6HR MIN TEMP:  70; 6HR MAX TEMP:  73;

WAUKESHA       PTCLDY    66  64  94 CALM      29.99S
MILWAUKEE/TIMM CLOUDY    68  63  83 CALM      29.98S
RACINE         CLOUDY    68  66  93 CALM      29.99R
6HR MIN TEMP:  67; 6HR MAX TEMP:  71;

BURLINGTON     CLOUDY    66  66 100 CALM      29.99R FOG
6HR MIN TEMP:  65; 6HR MAX TEMP:  74;

KENOSHA        MOCLDY    68  65  90 S3        29.97S
6HR MIN TEMP:  66; 6HR MAX TEMP:  75;

FOND DU LAC    CLOUDY    69  66  90 E3        30.01R
6HR MIN TEMP:  68; 6HR MAX TEMP:  70; 6HR PCP:  0.17;

SHEBOYGAN      CLOUDY    64  64 100 N3        30.00R FOG
6HR MIN TEMP:  63; 6HR MAX TEMP:  71; 6HR PCP: TRACE;

WEST BEND        N/A     66  66 100 CALM      30.00R
JUNEAU         CLOUDY    66  66  98 N5        30.00R FOG
6HR MIN TEMP:  65; 6HR MAX TEMP:  68;

$$

LSZ147-162-211300-
LAKE SUPERIOR

STATION/POSITION TIME  TEMP    WIND        PRES    WAVE
                       AIR SEA DIR/SP/G            HT/PER
                 (UTC) (F)     (DEG/KT/KT) (MB)    (FT/S)
W MID LAKE BUOY  1150   56 54   40/  4/  4 1017.2R   1
DEVILS ISLAND    1200   58      90/  3/  3 1017.2R
PORT WING        1140          110/  4/  7 1016.6F
SAXON HARBOR     1140   48     180/  6/  9 1016.6S
$$

LMZ867-665-643>646-211300-
LAKE MICHIGAN

STATION/POSITION TIME  TEMP    WIND        PRES    WAVE
                       AIR SEA DIR/SP/G            HT/PER
                 (UTC) (F)     (DEG/KT/KT) (MB)    (FT/S)
S GREEN BAY BUOY 1200   67 66   30/ 12/ 16 1015.9
N MID LAKE BUOY  1150   66 65  360/  8/ 10 1015.9R   3/ 6
NORTHPORT PIER   1140



USA.gov is the U.S. government's official web portal to all federal, state and local government web resources and services.